星链-4445 (STARLINK-4445 )

导读 | 星芒AI

STARLINK-4445 是 SpaceX Starlink 卫星互联网项目中的一颗低轨卫星,属于该计划的第四批部署。它运行在约 550 公里的太阳同步轨道上,旨在为全球用户提供高速互联网服务。该卫星采用先进通信技术,支持宽带接入,并具备自动避碰功能,以减少与其他航天器的碰撞风险。STARLINK-4445 于 2021 年发射,是 SpaceX 扩展全球网络覆盖、实现“数字公平”目标的重要组成部分。

基本信息
目录编号:
53474
目录名称:
STARLINK-4445
国际标识:
2022-099K
轨道中心:
EARTH
卫星名称:
星链-4445
卫星全名:
星链-4445 (STARLINK-4445 )
卫星状态:
在轨 (已飞行1227 天)
发射日期:
2022-08-12 UTC
国别 :
美国 (US)
星等 :
--
轨道信息
数据来源 国际轨道数据
星历时间: 2025-12-21T04:32:34+0800
10小时前
查看轨道信息
半长轴: 6941.156km
偏心率: 0.0001238
轨道倾角: 97.603°
近地点辐角 94.935°
升交点赤经 113.033°
平近点角 265.201°
近地点: 562.159km
远地点: 563.879km
周期: 95.920分钟
每日圈数: 15.012571
详细信息
固有亮度:
5
最大亮度:
2.5
卫星平台:
Starlink v1.5
覆盖范围:
全球
运营商:
太空探索技术公司
运营商所在国:
美国
制造商(研发单位):
太空探索技术公司
制造商所在国:
美国
使用方式:
暂无
卫星简介
星链(Starlink)计划是由太空探索技术公司(SpaceX)提出的一个巨型低轨卫星互联网星座项目,计划在2019年至2024年间在太空搭建由约1.2万颗卫星组成的“星链”网络,其中1584颗将部署在地球上空550千米处的近地轨道,并从2020年开始工作。该卫星仍在工作。
2D轨道图
3D轨道图
轨道高度分析图
轨道倾角分析图
轨道综合分析图
查看轨道综合分析图